Location: Baudoncourt
(47.7785°N, 6.3455°E)
Time: 20:31:47
(UTC+00:00)

Daily predictions for brighter satellites

Satellite Brightness Start Highest point End
(mag) Time Altitude Azimuth Time Altitude Azimuth Time Altitude Azimuth
NOAA 11 4.3 16:53:20 10° SE 16:58:39 55° ENE 17:03:57 10° N
BREEZE-M R/B 3.1 16:56:20 10° W 16:59:33 81° N 17:05:42 10° ENE
GEOS 3 Rocket 4.4 16:57:41 10° E 17:02:32 37° NE 17:07:26 10° NNW
Helios 1A Rocket 3.9 16:59:10 10° ESE 17:02:34 26° ENE 17:05:59 10° N
Cosmos 1850 Rocket 4.1 17:02:08 10° NNW 17:07:27 90° W 17:12:47 10° SSE
Cosmos 2369 Rocket 3.5 17:03:37 10° WSW 17:08:57 40° NW 17:14:20 10° NNE
Cosmos 2297 Rocket 3.1 17:04:34 10° NNW 17:09:31 29° NE 17:14:26 10° ESE
Cosmos 1939 Rocket 3.3 17:06:45 10° SE 17:10:28 39° ENE 17:14:10 10° N
NOAA 12 4.4 17:08:21 10° S 17:13:37 74° WSW 17:18:58 10° NNW
COSMO-SKYMED 1 3.2 17:09:47 10° NNE 17:13:47 34° E 17:17:45 10° SSE
Cosmos 304 Rocket 4.4 17:10:24 10° SW 17:15:07 59° WNW 17:19:52 10° NNE
FALCON 9 DEB 4.0 17:13:00 10° W 17:16:16 40° NNW 17:19:24 11° ENE
Cosmos 1452 Rocket 3.7 17:11:02 10° SSW 17:16:18 81° WNW 17:21:37 10° NNE
Cosmos 1689 Rocket 3.0 17:14:05 10° NE 17:16:35 26° E 17:19:03 10° SSE
Okean O Rocket 2.4 17:13:00 10° S 17:17:18 57° WSW 17:21:38 10° NNW
Aureole 3 Rocket 4.1 17:15:24 10° SE 17:18:28 23° E 17:22:16 10° NNE
H-2A R/B 3.2 17:16:08 10° ESE 17:20:26 25° ENE 17:24:47 10° N
H-2A R/B 3.4 17:17:19 10° N 17:21:16 40° WNW 17:25:08 10° SW
Cosmos 1328 3.9 17:17:40 10° NNW 17:21:38 81° W 17:25:34 10° S
ADEOS Rocket 3.9 17:19:17 10° N 17:25:22 57° WNW 17:32:05 10° SW
IRS-1C Rocket 4.1 17:20:15 10° SSE 17:25:27 64° ENE 17:30:41 10° N
Cosmos 1340 3.7 17:22:52 10° NNE 17:26:04 25° ENE 17:29:15 10° SE
Cosmos 1356 Rocket 4.4 17:22:31 10° SSW 17:26:41 53° WNW 17:30:56 10° N
Cosmos 1825 Rocket 3.5 17:23:28 10° N 17:27:58 78° E 17:32:24 10° SSE
CZ-4 R/B 1.9 17:24:39 10° SE 17:28:11 34° ENE 17:31:42 10° N
ERS-2 2.5 17:24:58 10° N 17:28:36 68° WNW 17:32:12 10° SSW
BREEZE-M DEB (TANK) 4.2 17:27:23 10° W 17:31:02 68° N 17:42:44 13° ENE
YAOGAN 1 3.2 17:28:04 10° SE 17:31:59 35° ENE 17:35:57 10° N
USA 281 4.3 17:26:34 10° S 17:32:51 48° WSW 17:39:11 10° NW
Lacrosse 5 3.0 17:29:46 10° W 17:34:27 36° NNW 17:38:57 11° NE
Cosmos 2219 3.6 17:29:39 10° NNW 17:35:10 44° NE 17:40:39 10° SE
ERBS 4.2 17:32:40 10° WNW 17:35:25 23° NNW 17:38:04 11° NE
Meteor 2-21 Rocket 4.4 17:29:25 10° N 17:35:39 77° E 17:41:47 10° SSE
CZ-4B R/B 2.2 17:36:46 10° N 17:39:58 50° WNW 17:43:04 10° SSW
SAR-Lupe-4 3.5 17:36:51 10° NNE 17:40:28 89° E 17:44:03 10° SSW
Cosmos 1400 Rocket 3.4 17:38:39 10° SSE 17:42:26 36° E 17:46:13 10° NNE
Cosmos 44 3.5 17:39:55 10° S 17:44:08 43° ESE 17:47:39 16° NE
USA 305 3.8 17:40:22 10° WNW 17:44:24 37° N 17:46:51 20° ENE
Cosmos 1758 Rocket 4.4 17:40:53 10° NNW 17:45:12 54° W 17:49:28 10° S
Okean-O 2.6 17:40:54 10° SSE 17:45:15 60° ENE 17:49:38 10° N
Cosmos 1726 Rocket 3.4 17:41:07 10° S 17:45:25 69° E 17:49:48 10° NNE
CZ-4C R/B 4.2 17:42:43 10° NW 17:47:22 21° N 17:52:05 12° NE
NOSS 2-2 (E) 4.5 17:44:46 10° NW 17:50:17 74° NE 17:58:00 10° SE
USA 306 3.8 17:46:38 10° WNW 17:50:40 38° N 17:52:49 22° ENE
Cosmos 1745 Rocket 4.4 17:48:00 10° N 17:53:55 41° ENE 17:59:51 10° SE
SL-08 R/B 4.5 17:49:29 10° N 17:55:35 57° ENE 18:01:35 10° SSE
Aureole 3 2.7 17:55:00 10° S 17:58:14 54° E 18:00:41 14° NNE
FALCON 9 DEB 3.9 17:56:57 10° SSW 17:59:49 29° SE 17:59:55 29° SE
Cosmos 1606 Rocket 3.9 17:55:31 10° SSW 17:59:50 68° W 18:04:15 10° N
Cosmos 1331 Rocket 4.0 17:54:45 10° SSW 17:59:55 85° WNW 18:05:07 10° NNE
SKYMED 2 3.7 17:57:37 10° N 18:01:59 78° WNW 18:06:19 10° SSW
Cosmos 2228 3.7 18:00:00 10° SSW 18:04:10 57° WNW 18:08:23 10° N
GENESIS II 4.2 18:00:34 10° SW 18:04:35 84° SE 18:07:02 23° NE
ATLAS 5 CENTAUR R/B 3.9 18:02:06 10° WNW 18:05:16 19° NNW 18:08:46 10° NNE
Cosmos 1244 Rocket 4.5 17:59:58 10° N 18:06:12 90° WSW 18:12:27 10° S
SL-4 R/B 2.4 18:03:19 10° W 18:06:46 45° N 18:08:01 32° NE
NOSS 2-2 (D) 4.4 18:01:42 10° NW 18:07:09 79° NE 18:13:51 14° SE
FALCON 9 DEB 3.7 18:04:26 10° SSW 18:07:15 35° SSE 18:07:15 35° SSE
CZ-2C R/B 3.2 18:02:13 10° SSE 18:08:01 76° ENE 18:13:43 10° N
Cosmos 292 Rocket 3.7 18:04:17 10° SSW 18:09:04 89° E 18:13:56 10° NNE
Cosmos 1346 Rocket 3.1 18:08:58 10° N 18:12:46 42° ENE 18:12:50 41° ENE
ARGOS 3.4 18:09:08 18° SE 18:12:52 47° ENE 18:18:04 10° N
Cosmos 2227 Rocket 2.2 18:07:53 10° NNW 18:13:32 63° ENE 18:17:08 23° SE
FALCON 9 DEB 3.8 18:12:22 10° SSW 18:15:00 37° SSE 18:15:00 37° SSE
Meteor 2-10 Rocket 3.8 18:10:42 10° SSE 18:15:46 44° E 18:20:41 10° NNE
Meteor 2-15 4.5 18:10:00 10° SSE 18:15:56 54° E 18:21:54 10° NNE
SeaSat 1 2.5 18:14:54 29° SE 18:17:19 59° NE 18:22:12 10° NNW
Cosmos 1892 2.6 18:13:38 10° N 18:17:31 66° E 18:19:18 30° SSE
CZ-2D R/B 4.3 18:16:06 10° S 18:19:47 47° W 18:23:29 10° NNW
USA 215 3.5 18:17:28 29° E 18:20:42 54° NNE 18:27:03 10° NW
Cosmos 1656 3.7 18:17:24 10° S 18:22:47 55° ESE 18:26:21 22° NE
Cosmos 1709 Rocket 4.4 18:18:07 10° N 18:24:06 41° ENE 18:25:51 34° ESE
Cosmos 2263 Rocket 3.7 18:20:17 10° N 18:24:14 19° NE 18:24:14 19° NE
Cosmos 968 Rocket 3.4 18:19:17 10° NNW 18:24:31 67° ENE 18:26:57 31° SE
ATLAS 2AS CENTAUR R/B 3.8 18:18:29 10° NW 18:25:16 32° NNE 18:27:53 26° ENE
CSL-04 Rocket 3.6 18:20:12 10° SSE 18:25:45 79° ENE 18:31:18 10° NNW
Cosmos 2058 Rocket 3.3 18:21:59 10° SSW 18:26:26 72° W 18:30:57 10° N
Cosmos 1302 Rocket 3.9 18:23:09 10° SSW 18:28:25 89° ESE 18:33:44 10° NNE
HJ-1C 3.9 18:30:27 49° N 18:30:27 49° N 18:33:02 10° N
FALCON 9 DEB 4.0 18:26:57 10° SW 18:29:11 38° SSW 18:29:11 38° SSW
Cosmos 1300 4.3 18:27:24 10° SW 18:30:55 35° WNW 18:34:28 10° N
Cosmos 1486 Rocket 3.9 18:25:37 10° NNW 18:31:00 79° ENE 18:33:47 29° SSE
USA 307 3.3 18:28:25 10° WNW 18:32:35 47° NNE 18:32:53 46° NNE
Cosmos 1697 Rocket 3.6 18:29:29 10° S 18:32:53 30° SE 18:32:53 30° SE
USA 308 3.3 18:33:11 10° WNW 18:37:21 49° NNE 18:37:27 49° NNE
Cosmos 1503 Rocket 4.0 18:35:03 10° NNW 18:40:10 56° ENE 18:40:29 55° ENE
GEOS 3 Rocket 4.1 18:36:45 21° SSE 18:40:20 61° SW 18:45:42 10° NW
DMSP B5D1-3 4.4 18:37:32 10° NNE 18:42:43 88° WNW 18:47:52 10° SSW
S3M 3.8 18:37:29 10° S 18:43:35 79° E 18:49:45 10° N
CRYOSAT 2 4.2 18:39:28 10° N 18:44:23 89° ESE 18:49:14 10° S
Cosmos 1825 4.1 18:43:14 10° N 18:44:29 20° N 18:44:29 20° N
Cosmos 1354 Rocket 4.0 18:44:37 10° NNW 18:49:38 59° NE 18:49:38 59° NE
Cosmos 1408 3.9 18:48:23 10° NNW 18:50:33 34° NNW 18:50:33 34° NNW
Cosmos 2297 Rocket 2.7 18:48:21 10° NW 18:53:55 57° WSW 18:57:47 20° S
Cosmos 2058 3.3 18:53:53 10° NNW 18:57:56 61° W 18:57:58 61° W
MOS 1 Rocket 3.5 18:53:47 10° N 18:58:19 67° WNW 19:03:07 10° SSW
H-2A R/B 2.7 18:54:10 10° S 18:59:28 58° W 19:04:52 10° NNW
SL-08 RB Rocket 4.2 19:03:12 50° N 19:03:12 50° N 19:06:33 10° NNW
CZ-4 R/B 3.8 19:00:14 10° SW 19:03:18 22° W 19:06:22 10° NW
Timation 1 Rocket 4.3 19:02:38 10° NNW 19:08:22 64° NE 19:08:22 64° NE
Ariane Rocket 3.6 19:18:51 49° N 19:18:51 49° N 19:22:34 10° NNW
Lacrosse 5 3.3 19:14:05 10° NW 19:18:09 29° N 19:18:09 29° N
BREEZE-M R/B 4.1 19:17:48 10° WNW 19:22:39 87° NNE 19:23:15 77° E
USA 305 4.5 19:20:32 10° WNW 19:23:00 33° NW 19:23:00 33° NW
Cosmos 2082 4.0 19:24:40 10° NNW 19:30:17 63° WSW 19:30:17 63° WSW
CZ-4C R/B 3.7 19:31:41 10° NW 19:37:16 36° NNE 19:37:16 36° NNE
ATLAS 5 CENTAUR R/B 4.4 19:49:17 10° NNW 19:51:05 14° N 19:51:05 14° N
NOSS 3-4 (A) 4.0 19:48:06 10° NW 19:53:45 61° NNW 19:53:45 61° NNW
NOSS 3-4 (C) 4.1 19:48:12 10° NW 19:53:51 61° NNW 19:53:51 61° NNW
SeaSat 1 4.4 19:54:43 23° WSW 19:55:08 23° WSW 19:59:03 10° NW
Cosmos 2227 Rocket 4.2 19:52:47 10° NW 19:57:06 23° WSW 19:59:01 19° SW
USA 215 3.7 20:04:50 58° W 20:04:50 58° W 20:10:10 10° WNW
Cosmos 2263 Rocket 3.9 20:03:24 10° NNW 20:05:55 27° NNW 20:05:55 27° NNW
ATLAS 2AS CENTAUR R/B 3.4 20:09:48 10° NW 20:15:19 51° NNW 20:15:19 51° NNW
